Temp
-10 -10 -10 -10 -10 -10 -10 -11 -12 -11 -10 -10 -11 -10 -10 -11 -10 -10 -11 -11 -11 -11 -11 -11 -11 -11 -11 -11 -12 -12 -12 -11 -12 -12 -12 -12 -12 -12 -12 -12 -12 -12 -12
-10 -11 -10 -10 -11 -10 -10 -11 -11 -10 -10 -11 -10 -10 -10 -10 -10 -10 -11 -11 -11 -11 -11 -11 -11 -11 -11 -12 -12 -12 -12 -12 -12 -12 -12 -12 -12 -12 -12 -12 -12 -12 -12
-10 -10 -11 -11 -11 -11 -11 -10 -10 -10 -11 -9 -9 -10 -10 -10 -10 -10 -10 -11 -11 -11 -11 -11 -11 -11 -11 -12 -11 -12 -12 -12 -12 -12 -12 -12 -12 -12 -12 -12 -12 -12 -12
-11 -11 -10 -10 -11 -11 -11 -10 -11 -11 -10 -10 -10 -10 -10 -10 -10 -10 -11 -11 -11 -11 -11 -11 -11 -11 -11 -11 -12 -12 -12 -12 -12 -12 -13 -12 -12 -12 -12 -12 -12 -13 -12
-11 -11 -10 -10 -11 -11 -11 -11 -11 -10 -10 -10 -10 -10 -10 -10 -10 -11 -11 -11 -10 -11 -11 -11 -11 -11 -11 -12 -12 -12 -12 -13 -13 -13 -13 -13 -12 -12 -12 -12 -12 -12 -12
-11 -11 -11 -11 -11 -11 -11 -11 -11 -10 -10 -10 -10 -10 -10 -11 -11 -11 -11 -10 -11 -11 -11 -11 -11 -11 -12 -12 -12 -13 -13 -13 -13 -13 -13 -13 -12 -12 -12 -12 -12 -12 -13
-12 -12 -11 -11 -11 -11 -11 -11 -10 -10 -10 -10 -10 -11 -11 -11 -11 -11 -11 -10 -11 -11 -11 -11 -12 -12 -12 -12 -13 -13 -13 -13 -13 -13 -13 -13 -13 -13 -13 -12 -12 -13 -13
-12 -12 -11 -11 -11 -11 -10 -11 -10 -10 -10 -10 -11 -11 -11 -11 -11 -11 -10 -11 -11 -11 -11 -12 -12 -12 -12 -11 -12 -12 -13 -13 -13 -13 -13 -13 -13 -13 -13 -13 -13 -13 -13
-13 -12 -12 -12 -11 -10 -10 -10 -10 -10 -10 -11 -11 -11 -11 -11 -11 -11 -11 -11 -11 -11 -11 -12 -12 -12 -12 -12 -12 -12 -13 -13 -13 -13 -13 -13 -13 -13 -13 -13 -13 -13 -13
-13 -12 -13 -12 -11 -11 -10 -11 -11 -10 -11 -11 -11 -11 -11 -11 -11 -11 -11 -11 -11 -11 -12 -12 -12 -12 -12 -12 -12 -13 -13 -12 -13 -13 -13 -13 -13 -13 -13 -13 -13 -13 -13
-13 -13 -12 -12 -11 -11 -11 -11 -11 -11 -12 -11 -11 -11 -11 -11 -11 -11 -11 -11 -11 -12 -12 -12 -12 -12 -12 -12 -12 -13 -13 -13 -13 -13 -13 -13 -13 -14 -14 -13 -13 -14 -14
-13 -13 -12 -12 -12 -12 -11 -11 -11 -11 -11 -11 -11 -11 -11 -11 -11 -11 -11 -11 -11 -12 -12 -12 -12 -12 -12 -12 -12 -12 -12 -13 -13 -13 -13 -13 -13 -13 -13 -13 -13 -13 -13
-13 -12 -12 -12 -11 -11 -11 -12 -12 -11 -11 -11 -11 -11 -11 -11 -11 -11 -11 -11 -12 -12 -12 -12 -12 -12 -12 -12 -12 -12 -13 -13 -13 -13 -13 -13 -13 -13 -13 -13 -13 -13 -13
-14 -13 -13 -12 -11 -11 -11 -11 -11 -11 -11 -11 -11 -11 -11 -11 -11 -11 -11 -11 -12 -12 -12 -12 -12 -12 -12 -12 -12 -12 -12 -13 -13 -14 -13 -13 -13 -12 -12 -13 -13 -13 -13
-13 -14 -12 -12 -12 -12 -11 -11 -11 -11 -11 -11 -11 -11 -11 -11 -11 -12 -12 -12 -12 -12 -12 -12 -13 -12 -12 -12 -12 -12 -12 -12 -13 -13 -13 -13 -13 -12 -12 -12 -12 -13 -13
-13 -13 -12 -13 -12 -12 -11 -11 -11 -11 -11 -11 -11 -11 -11 -12 -12 -12 -12 -12 -12 -12 -12 -12 -12 -12 -12 -13 -12 -12 -12 -12 -12 -13 -13 -13 -13 -12 -12 -12 -12 -13 -13
-12 -12 -12 -12 -11 -11 -11 -11 -11 -11 -11 -11 -11 -11 -11 -12 -12 -12 -12 -11 -11 -12 -12 -12 -12 -13 -13 -13 -13 -13 -13 -12 -13 -13 -13 -13 -13 -13 -12 -12 -13 -13 -13
-13 -12 -12 -11 -11 -11 -11 -11 -11 -11 -11 -11 -11 -11 -11 -11 -11 -11 -11 -11 -11 -12 -12 -12 -12 -13 -13 -13 -13 -13 -13 -13 -13 -13 -13 -13 -13 -13 -13 -13 -13 -13 -13
-12 -12 -11 -11 -11 -11 -11 -11 -11 -11 -11 -11 -11 -11 -11 -11 -11 -11 -11 -11 -11 -11 -12 -12 -12 -12 -12 -12 -13 -13 -13 -13 -13 -13 -13 -13 -13 -13 -13 -13 -13 -13 -13
-12 -11 -11 -11 -11 -11 -11 -11 -11 -11 -11 -11 -11 -11 -11 -11 -11 -11 -11 -11 -11 -11 -12 -12 -12 -12 -12 -12 -12 -12 -12 -13 -13 -13 -13 -13 -13 -13 -13 -13 -13 -13 -13
-12 -11 -11 -11 -11 -11 -11 -11 -11 -11 -12 -12 -11 -11 -11 -11 -11 -11 -11 -11 -11 -11 -12 -12 -12 -12 -12 -12 -12 -12 -12 -12 -13 -13 -13 -13 -13 -13 -13 -13 -13 -13 -13
-12 -12 -11 -11 -11 -11 -11 -12 -12 -12 -12 -12 -12 -11 -11 -11 -11 -11 -12 -11 -11 -11 -11 -11 -12 -12 -12 -12 -12 -12 -12 -13 -13 -13 -13 -13 -13 -13 -13 -13 -13 -13 -13
-12 -12 -11 -11 -11 -12 -12 -13 -12 -12 -12 -12 -12 -11 -11 -11 -12 -12 -12 -12 -12 -12 -12 -12 -12 -12 -12 -12 -12 -12 -12 -13 -13 -13 -13 -13 -13 -13 -13 -13 -13 -14 -14
-12 -11 -11 -12 -12 -12 -12 -13 -13 -12 -12 -12 -12 -12 -12 -12 -12 -12 -12 -12 -13 -13 -13 -13 -13 -13 -12 -13 -12 -13 -13 -13 -13 -13 -13 -13 -13 -13 -13 -13 -14 -14 -14
-12 -11 -12 -12 -12 -12 -13 -13 -13 -13 -13 -12 -12 -13 -13 -13 -13 -12 -12 -12 -13 -13 -13 -13 -13 -13 -13 -13 -13 -13 -13 -13 -13 -14 -14 -13 -14 -14 -14 -14 -14 -14 -14
-12 -12 -12 -12 -12 -13 -13 -13 -13 -13 -13 -13 -13 -13 -13 -13 -13 -13 -13 -13 -13 -13 -13 -13 -13 -13 -13 -13 -13 -14 -14 -14 -14 -14 -14 -14 -14 -14 -14 -14 -14 -14 -15
Height
5691 5698 5706 5713 5720 5730 5734 5737 5740 5743 5748 5749 5749 5751 5751 5750 5751 5753 5752 5753 5752 5751 5749 5747 5744 5741 5739 5738 5737 5736 5735 5734 5733 5730 5729 5729 5730 5731 5732 5735 5735 5737 5739
5678 5686 5694 5701 5709 5719 5724 5725 5730 5735 5738 5739 5742 5743 5742 5741 5744 5744 5745 5745 5745 5743 5743 5740 5737 5734 5734 5732 5731 5731 5730 5729 5728 5727 5726 5725 5726 5727 5729 5731 5732 5734 5737
5664 5672 5681 5689 5696 5706 5712 5717 5721 5725 5728 5731 5735 5736 5733 5734 5736 5737 5738 5738 5738 5737 5735 5733 5730 5729 5727 5726 5725 5725 5724 5724 5722 5722 5721 5721 5722 5724 5725 5727 5729 5732 5734
5648 5660 5670 5678 5687 5695 5699 5705 5711 5715 5720 5724 5726 5727 5725 5727 5729 5731 5732 5732 5731 5730 5728 5725 5724 5723 5721 5720 5719 5718 5717 5717 5717 5717 5716 5717 5718 5720 5722 5722 5723 5727 5732
5635 5648 5660 5668 5676 5682 5688 5696 5702 5708 5712 5716 5718 5717 5719 5721 5724 5725 5726 5725 5725 5723 5721 5719 5718 5716 5715 5713 5711 5709 5708 5708 5709 5710 5711 5713 5714 5717 5719 5720 5722 5726 5731
5623 5637 5647 5655 5664 5671 5679 5688 5695 5700 5705 5709 5709 5711 5714 5717 5719 5720 5720 5720 5718 5716 5715 5713 5712 5710 5708 5705 5702 5700 5699 5698 5699 5702 5704 5708 5711 5714 5717 5720 5722 5725 5729
5612 5624 5635 5644 5654 5664 5672 5681 5688 5694 5698 5700 5703 5705 5709 5712 5713 5714 5714 5713 5712 5711 5709 5708 5706 5704 5701 5697 5694 5691 5690 5689 5691 5694 5698 5703 5707 5710 5714 5718 5720 5723 5726
5600 5614 5627 5638 5647 5657 5667 5674 5681 5687 5690 5693 5696 5699 5704 5707 5707 5708 5709 5708 5707 5705 5704 5702 5700 5698 5695 5692 5689 5685 5684 5684 5686 5690 5696 5701 5704 5708 5712 5715 5718 5721 5725
5597 5610 5622 5632 5641 5652 5660 5667 5674 5679 5684 5687 5691 5695 5699 5700 5701 5702 5703 5703 5701 5700 5698 5696 5695 5693 5691 5689 5686 5684 5683 5683 5684 5689 5695 5699 5702 5705 5708 5712 5715 5719 5722
5596 5608 5616 5625 5635 5644 5653 5661 5667 5672 5677 5682 5686 5690 5692 5694 5695 5696 5697 5697 5696 5694 5693 5692 5691 5689 5687 5686 5685 5685 5683 5682 5685 5690 5693 5696 5699 5702 5706 5709 5712 5715 5719
5591 5601 5611 5619 5627 5637 5646 5653 5660 5667 5672 5678 5682 5685 5687 5688 5689 5691 5691 5691 5690 5689 5689 5689 5687 5686 5685 5685 5684 5684 5684 5685 5687 5688 5691 5694 5696 5699 5703 5706 5709 5713 5716
5590 5598 5606 5615 5625 5633 5641 5648 5656 5663 5670 5674 5677 5680 5681 5682 5684 5684 5685 5686 5686 5685 5685 5685 5684 5683 5683 5684 5683 5683 5684 5685 5685 5687 5689 5691 5694 5697 5700 5703 5707 5711 5714
5584 5593 5602 5614 5618 5629 5638 5646 5654 5660 5664 5669 5672 5674 5676 5676 5677 5679 5680 5681 5681 5681 5681 5681 5680 5680 5681 5682 5682 5683 5684 5685 5686 5687 5688 5690 5692 5694 5698 5701 5705 5709 5712
5579 5589 5597 5606 5616 5626 5635 5643 5650 5656 5660 5664 5667 5668 5669 5670 5671 5673 5674 5675 5676 5677 5678 5678 5678 5678 5679 5680 5681 5682 5683 5684 5685 5685 5686 5687 5689 5692 5695 5699 5702 5705 5709
5578 5584 5583 5602 5615 5625 5633 5640 5647 5652 5655 5658 5660 5662 5663 5664 5665 5666 5668 5670 5672 5673 5674 5675 5675 5676 5677 5678 5679 5680 5682 5683 5684 5684 5685 5686 5687 5689 5692 5696 5700 5703 5707
5570 5575 5588 5604 5615 5624 5631 5637 5643 5647 5651 5653 5656 5657 5658 5659 5659 5660 5662 5665 5668 5670 5671 5673 5674 5674 5675 5676 5678 5679 5681 5682 5684 5685 5686 5686 5686 5688 5691 5695 5698 5701 5704
5573 5585 5594 5606 5616 5624 5630 5635 5640 5644 5646 5649 5651 5653 5655 5656 5656 5656 5658 5661 5664 5667 5668 5670 5672 5672 5673 5675 5676 5678 5680 5681 5682 5684 5685 5686 5687 5688 5691 5693 5696 5700 5702
5582 5591 5600 5609 5618 5624 5628 5633 5637 5640 5643 5645 5648 5650 5652 5653 5654 5655 5657 5659 5662 5664 5665 5668 5669 5670 5671 5673 5675 5676 5678 5680 5682 5683 5685 5687 5688 5690 5692 5694 5695 5698 5700
5588 5597 5605 5612 5617 5624 5627 5631 5634 5637 5639 5642 5644 5647 5649 5651 5651 5652 5654 5657 5659 5661 5664 5666 5667 5668 5669 5671 5673 5675 5677 5679 5681 5683 5684 5686 5688 5690 5692 5693 5695 5696 5698
5593 5600 5607 5612 5618 5622 5625 5628 5631 5634 5637 5639 5643 5646 5648 5648 5649 5650 5652 5654 5656 5659 5662 5663 5665 5666 5668 5670 5672 5674 5676 5678 5680 5681 5683 5685 5686 5688 5689 5691 5692 5693 5695
5596 5603 5609 5613 5616 5619 5623 5627 5630 5633 5637 5640 5643 5645 5645 5646 5646 5648 5649 5651 5654 5657 5659 5661 5664 5665 5667 5668 5671 5673 5675 5677 5679 5680 5681 5682 5683 5685 5687 5687 5688 5689 5690
5598 5604 5608 5611 5615 5620 5624 5628 5632 5635 5638 5641 5642 5643 5644 5645 5646 5648 5650 5652 5654 5656 5659 5661 5662 5664 5666 5667 5670 5672 5674 5675 5677 5678 5679 5680 5681 5682 5683 5684 5685 5685 5686
5599 5604 5609 5613 5617 5622 5627 5630 5633 5636 5638 5639 5642 5643 5644 5645 5646 5648 5650 5652 5654 5656 5659 5661 5662 5664 5665 5667 5668 5670 5671 5673 5674 5675 5676 5677 5678 5679 5681 5681 5682 5683 5684
5601 5607 5611 5616 5620 5623 5627 5630 5633 5636 5638 5641 5642 5643 5646 5647 5648 5649 5651 5653 5655 5657 5659 5661 5663 5664 5665 5666 5667 5669 5669 5671 5672 5673 5674 5675 5676 5677 5677 5678 5679 5679 5680
5603 5609 5614 5617 5621 5623 5626 5630 5633 5636 5639 5641 5642 5644 5647 5648 5650 5652 5653 5654 5656 5658 5660 5661 5663 5664 5665 5666 5667 5669 5670 5671 5671 5672 5673 5674 5675 5675 5676 5675 5676 5676 5676
5606 5611 5615 5618 5621 5623 5627 5629 5632 5635 5638 5640 5642 5644 5647 5649 5651 5653 5654 5656 5658 5660 5661 5662 5663 5664 5665 5667 5668 5669 5670 5671 5671 5672 5672 5672 5673 5673 5673 5673 5673 5672 5672
Wind_Speed
68 66 63 60 55 44 42 43 49 46 43 45 47 43 41 41 35 40 35 33 32 33 32 30 29 26 24 24 21 21 20 20 20 16 15 13 13 14 15 15 14 13 16
63 64 62 58 52 47 47 49 48 43 45 51 47 43 40 33 31 35 32 31 32 30 30 29 27 25 24 24 22 22 20 19 21 19 15 14 14 17 17 16 15 12 18
65 63 61 60 55 44 47 49 46 41 48 50 47 41 30 29 33 31 30 30 30 29 30 28 26 24 26 24 23 24 22 21 21 18 17 15 15 17 19 18 21 19 21
64 62 59 59 54 48 47 42 44 48 47 45 43 33 31 29 28 28 28 28 28 29 27 27 25 26 25 23 24 24 24 24 24 21 20 17 16 17 17 18 22 19 24
64 60 59 58 54 54 48 45 47 45 41 41 37 32 28 26 26 27 27 26 28 27 25 25 25 25 23 24 26 27 28 28 25 24 22 20 17 17 15 11 15 21 22
62 59 61 59 56 55 48 45 46 42 40 35 32 29 25 23 28 27 26 26 25 23 25 24 24 23 23 26 29 31 30 30 27 24 23 21 17 20 19 18 20 22 22
62 64 64 62 57 54 46 48 48 41 34 31 32 25 26 27 26 24 26 23 22 24 25 24 23 23 26 29 27 26 24 20 19 23 22 19 18 22 21 20 20 23 25
64 65 62 59 56 51 46 47 43 36 33 32 27 26 26 28 25 25 23 20 23 23 23 23 21 23 23 17 18 13 10 11 14 19 22 19 19 19 22 23 22 21 22
57 59 56 52 49 44 46 42 36 33 31 29 27 27 28 25 26 24 22 21 21 21 20 19 19 19 13 11 9 4 3 10 15 24 23 20 19 20 22 22 20 20 23
45 46 44 45 45 46 44 38 33 32 30 28 29 28 26 27 26 22 22 21 21 19 17 17 16 12 8 7 5 3 1 2 17 19 19 16 17 18 22 22 20 21 22
35 41 42 45 48 44 40 37 33 30 29 29 28 28 28 26 23 21 20 19 18 17 16 13 10 8 6 6 4 3 5 7 10 12 17 17 16 17 20 22 22 21 20
37 39 45 48 44 40 37 35 32 30 30 27 28 28 26 24 22 20 20 18 16 17 14 10 9 7 6 7 7 5 5 4 6 7 10 12 15 17 20 23 22 22 21
36 37 44 44 45 40 36 31 30 28 26 28 27 25 24 22 21 22 21 19 17 17 14 8 9 8 7 8 8 9 8 7 5 5 10 15 17 18 21 22 19 20 21
42 45 45 49 43 39 34 31 28 28 27 25 23 21 21 20 21 23 23 19 18 18 14 8 9 10 9 9 8 9 8 9 7 5 6 10 15 18 22 22 19 19 20
36 41 37 46 39 34 31 29 28 27 24 20 19 20 21 22 22 22 20 18 19 18 15 10 9 10 11 10 10 9 8 7 4 2 6 8 9 19 22 22 23 22 21
48 48 46 39 35 34 33 30 26 21 18 18 19 18 16 15 16 16 18 19 19 17 14 11 9 9 11 11 12 10 8 10 7 5 4 7 5 14 18 20 19 19 19
47 45 41 38 35 31 28 24 21 20 19 18 16 13 10 8 9 10 15 18 18 16 13 12 11 8 10 10 11 11 9 11 10 7 5 4 6 11 13 11 19 19 14
40 39 37 34 32 27 23 22 20 18 17 16 14 13 10 9 9 9 11 14 14 13 13 12 11 8 9 11 10 12 11 11 11 9 9 8 9 10 11 14 14 16 15
37 35 34 29 25 24 21 18 17 16 15 15 14 13 12 11 11 12 14 14 13 12 12 11 10 8 9 10 10 10 11 11 11 10 10 11 12 13 14 13 14 15 16
34 31 28 27 24 20 16 13 13 14 15 14 12 11 10 11 9 10 11 11 11 11 11 10 9 8 9 10 10 10 11 11 11 11 11 11 12 14 16 18 19 20 20
30 27 27 25 20 15 11 12 13 14 13 12 10 9 8 7 8 8 8 9 10 12 12 11 10 8 7 9 10 10 11 10 10 11 12 12 13 13 14 16 18 20 20
30 28 24 20 18 14 15 15 15 14 12 11 10 10 9 8 9 9 11 12 12 12 11 12 11 10 8 8 8 9 9 9 9 10 11 12 12 11 11 12 13 12 13
27 25 21 19 17 16 17 17 16 14 13 12 10 7 6 9 11 11 12 13 12 11 11 10 9 8 7 8 9 11 11 11 11 10 11 11 10 10 9 9 8 9 12
24 22 21 20 18 17 17 17 15 12 11 10 9 7 5 5 7 8 9 9 8 8 8 7 7 7 6 5 6 8 8 8 8 8 7 8 9 10 10 10 10 10 11
24 22 21 20 19 18 19 17 15 12 11 10 9 7 6 6 6 8 10 10 8 7 5 5 5 4 3 3 3 4 5 5 6 9 11 10 10 10 10 11 12 13 14
24 22 20 20 19 19 19 17 15 13 12 10 10 10 9 9 8 7 7 9 9 8 7 6 5 4 3 2 2 2 2 2 4 6 7 8 9 10 12 14 17 19 21
Wind_Direction
235 240 242 242 243 238 239 244 251 254 252 260 261 265 270 272 265 265 271 275 281 283 288 291 294 287 282 283 279 274 277 283 285 282 272 265 254 239 232 223 223 224 219
232 235 239 242 240 234 232 239 245 246 249 256 260 268 270 262 256 263 269 273 280 283 286 289 290 283 279 279 274 273 275 275 275 277 270 261 251 239 236 225 221 221 215
229 231 234 238 240 235 229 234 240 246 247 252 258 266 256 252 259 262 265 274 278 283 285 287 285 277 278 277 274 274 273 269 263 269 263 250 244 243 238 233 227 225 205
221 223 229 234 236 234 234 237 239 240 246 251 256 253 253 258 255 259 269 275 280 282 281 286 281 277 278 275 274 274 272 266 262 267 254 239 235 235 236 242 232 210 195
215 217 222 229 231 230 229 233 236 240 245 247 251 249 248 244 251 262 271 275 278 280 284 284 273 277 280 281 278 274 270 268 264 256 243 227 229 225 214 197 191 186 195
209 211 216 222 227 227 226 230 233 238 241 244 240 236 238 241 252 264 267 271 275 282 284 273 277 285 287 287 280 275 273 265 264 242 222 217 223 220 216 204 200 199 203
202 207 212 217 220 224 221 225 230 234 237 233 232 233 236 248 257 260 264 270 278 277 279 274 281 285 292 289 284 276 270 261 254 219 201 206 213 215 207 196 210 209 209
199 204 210 215 220 223 219 223 226 228 226 228 231 234 239 251 252 257 263 267 273 277 277 274 281 292 291 287 299 291 258 247 216 195 201 214 211 216 216 216 216 214 212
200 203 210 217 222 222 217 218 219 219 221 227 229 235 245 246 251 253 260 262 276 274 274 277 287 289 285 291 308 282 315 250 231 201 208 204 211 214 215 212 214 217 212
201 202 210 216 212 210 209 211 208 210 218 224 232 241 240 243 246 252 256 265 272 269 269 276 288 287 265 277 288 296 277 122 197 196 207 213 217 215 212 210 210 209 206
193 201 201 201 199 199 200 200 200 209 219 227 236 233 237 241 246 249 254 266 269 264 259 281 272 277 244 256 234 182 142 159 184 202 202 214 215 216 210 208 208 206 203
193 200 201 197 194 192 196 195 199 213 220 224 225 230 236 242 244 248 254 264 261 252 254 276 259 253 241 223 211 202 173 166 165 184 203 214 216 213 210 210 209 207 204
201 203 194 195 193 187 189 193 205 214 216 217 224 231 240 246 246 246 252 261 253 244 248 261 247 244 227 227 203 194 188 182 195 226 223 220 217 211 206 209 212 210 211
212 193 187 194 186 178 185 198 204 205 210 217 224 235 243 245 248 250 252 254 240 234 237 243 244 233 223 213 201 200 201 216 231 244 228 217 220 212 207 204 205 208 211
230 226 184 167 172 180 188 194 198 205 209 219 231 237 245 254 253 250 245 239 228 224 227 232 243 231 226 213 200 196 200 209 207 212 232 236 221 205 206 210 211 217 220
215 182 162 165 173 177 183 191 198 203 213 223 230 243 248 252 255 252 241 233 222 221 224 223 237 234 225 217 208 200 202 198 188 196 221 234 216 194 199 208 210 217 220
151 152 158 164 171 178 185 188 195 208 215 223 231 230 227 239 249 235 215 209 213 220 225 222 235 235 225 220 212 211 210 204 200 197 206 207 199 187 186 203 215 212 214
152 157 159 165 172 177 180 193 204 211 217 221 223 212 212 226 224 204 197 204 215 228 227 221 227 230 219 217 212 215 217 211 206 198 199 187 190 186 192 205 201 210 222
157 159 162 163 167 178 188 200 206 212 213 214 211 209 217 228 228 217 214 217 222 220 214 215 217 214 210 208 202 198 200 204 209 208 203 206 204 205 215 221 222 223 224
157 159 160 165 174 184 190 199 210 202 197 192 198 204 221 232 221 215 210 208 208 203 203 211 206 201 199 203 202 194 195 200 210 216 220 224 223 224 227 230 235 238 239
158 162 168 170 173 167 172 176 167 163 165 170 183 196 201 199 190 193 194 184 184 189 196 196 194 191 187 198 202 202 202 205 212 221 224 230 235 239 242 248 251 251 252
163 168 168 163 157 162 166 161 153 155 160 172 188 188 183 178 175 166 167 166 168 173 181 188 197 202 198 194 199 205 207 214 224 236 243 243 247 252 264 261 252 255 255
164 164 163 160 158 159 155 156 158 166 174 177 179 172 174 183 182 174 181 183 188 190 191 196 198 195 201 206 202 205 210 215 219 236 252 252 251 251 252 250 248 253 250
167 166 168 165 159 154 159 163 166 170 177 180 180 181 169 157 164 174 177 170 167 179 186 192 203 210 202 199 210 217 217 215 205 216 229 251 252 252 254 251 246 247 255
168 175 174 166 156 153 158 167 168 177 188 187 167 145 147 150 132 134 136 132 133 136 140 141 139 142 153 164 195 211 216 230 235 240 254 274 270 268 269 267 261 260 264
173 177 174 166 158 159 169 178 180 187 184 176 163 151 148 144 138 135 129 122 118 119 119 125 127 128 129 131 142 153 187 230 247 256 267 274 273 274 272 271 272 274 274